Location: ????
(55.5675°N, 37.6272°E)
Time: 01:51:48
(UTC+00:00)

Cosmos 2237 Rocket - Pass Details

Date: 14 April 2026
Orbit: 833 x 850 km, 71.0° (Epoch: 20 May)

Event Time Altitude Azimuth Distance (km) Brightness Sun altitude
Rises 19:58:48 0° 234° (SW) 3,400 5.2 -22.1°
Reaches altitude 10° 20:01:19 10° 239° (WSW) 2,470 4.5 -22.2°
Maximum altitude 20:06:49 49° 314° (NW) 1,089 3.1 -22.5°
Drops below altitude 10° 20:12:22 10° 30° (NNE) 2,489 5.1 -22.8°
Sets 20:14:56 0° 36° (NE) 3,428 5.8 -22.9°
